#timestamp,LO_Frequency,Hit 
1505167215.2,286046992.1,P
1505167235.1,286046996.8,N
1505167236.0,286046996.8,N
1505167255.8,286046998.8,N
1505167275.6,286047000.2,N
1505167295.4,286047001.6,N
1505167315.3,286047003.8,N
1505167335.1,286047004.1,N
1505167355.8,286047002.2,N
1505167375.7,286047003.6,N
1505167395.5,286046999.8,N
1505167415.3,286046998.8,N
1505167435.2,286046999.4,N
1505167455.9,286047001.2,N
1505167475.7,286046996.7,N
1505167495.6,286046999.3,N
1505167515.4,286046998.3,N
1505167535.2,286046998.0,N
1505167555.0,286046999.5,N
1505167556.0,286046999.5,N
1505167575.8,286046998.5,N
1505167595.6,286046999.6,N
1505167615.4,286046999.0,N
1505167635.3,286046998.3,N
1505167655.1,286046998.2,N
1505167675.8,286046997.4,N
1505167695.7,286047000.2,N
1505167715.5,286046998.5,N
1505167735.3,286046993.6,N
1505167755.2,286046993.9,N
1505167775.9,286046996.7,N
1505167795.7,286046998.7,N
1505167815.6,286046997.6,N
1505167835.4,286046997.0,N
1505167855.2,286046993.2,N
1505167875.0,286046992.9,N
1505167876.0,286046992.9,N
1505167895.8,286046995.3,N
1505167915.6,286046996.7,N
1505167935.4,286046995.9,N
1505167955.3,286046998.4,N
1505167975.1,286046998.9,N
1505167995.8,286047001.9,N
1505168015.7,286047001.4,N
1505168035.5,286047002.2,N
1505168055.3,286047002.1,N
1505168075.2,286047000.6,N
1505168095.9,286046996.6,N
1505168115.7,286046998.9,N
1505168135.6,286046996.5,N
1505168155.4,286046999.6,N
1505168175.2,286046996.5,N
1505168195.0,286046998.7,N
1505168196.0,286046998.7,N
1505168215.8,286046998.7,N
1505168235.6,286046998.7,N
1505168255.4,286047000.6,N
1505168275.3,286046998.1,N
1505168295.1,286046998.6,N
1505168315.8,286047002.0,N
1505168335.7,286047005.5,N
1505168355.5,286047005.6,N
1505168375.3,286047009.0,N
1505168395.2,286047005.9,N
1505168415.9,286047007.6,N
1505168435.7,286047003.2,N
1505168455.6,286047005.6,N
1505168475.4,286047004.0,N
1505168495.2,286046998.8,N
1505168515.0,286046996.2,N
1505168516.0,286046996.2,N
1505168535.8,286046994.8,N
1505168555.6,286046993.9,N
1505168575.4,286046993.4,N
1505168595.3,286046997.9,N
1505168615.1,286046995.4,N
1505168635.8,286046998.6,N
1505168655.7,286046996.2,N
1505168675.5,286046997.0,N
1505168695.3,286046998.5,N
1505168715.2,286046997.4,N
1505168735.9,286046997.2,N
1505168755.7,286046998.3,N
1505168775.6,286047004.0,N
1505168795.4,286047003.2,N
1505168815.2,286047004.7,N
1505168835.1,286047007.1,N
1505168836.0,286047007.1,N
1505168855.8,286047004.1,N
1505168875.6,286047004.2,N
1505168895.5,286047001.8,N
1505168915.3,286047001.7,N
1505168935.1,286047006.0,N
1505168955.8,286047003.8,N
1505168975.7,286047005.6,N
1505168995.5,286047006.3,N
1505169015.3,286047006.1,N
1505169035.2,286047005.5,N
1505169055.9,286047003.6,N
1505169075.7,286047006.7,N
1505169095.6,286047004.3,N
1505169115.4,286047004.3,N
1505169135.2,286047002.1,N
1505169155.1,286046997.8,N
1505169156.0,286046997.8,N
1505169175.8,286046996.3,N
1505169195.6,286046997.5,N
1505169215.5,286046997.2,N
1505169235.3,286046997.0,N
1505169255.1,286047001.9,N
1505169275.8,286047002.6,N
1505169295.7,286046996.8,N
1505169315.5,286046995.7,N
1505169335.3,286046993.9,N
1505169355.2,286046999.2,N
1505169375.0,286046998.7,N
1505169375.9,286046998.7,N
1505169395.7,286047001.8,N
1505169415.6,286047002.9,N
1505169435.4,286047005.1,N
1505169455.2,286046998.4,N
1505169475.1,286046994.1,N
1505169476.0,286046994.1,N
1505169495.8,286046998.6,N
1505169515.6,286046996.5,N
1505169535.5,286046995.5,N
1505169555.3,286046991.7,N
1505169575.1,286046988.1,P
1505169595.9,286046984.1,N
1505169615.7,286046985.0,N
1505169635.5,286046986.5,N
1505169655.4,286046985.2,N
1505169675.2,286046982.3,P
1505169695.0,286046997.5,N
1505169695.9,286046997.5,N
1505169715.8,286046995.4,N
1505169735.6,286046995.7,N
1505169755.4,286046995.4,N
1505169775.3,286046999.2,N
1505169795.1,286047000.1,N
1505169796.0,286047000.1,N
1505169815.8,286047003.7,N
1505169835.7,286047004.5,N
1505169855.5,286047005.0,N
1505169875.3,286047003.0,N
1505169895.1,286047004.9,N
1505169915.9,286047007.6,N
1505169935.7,286047003.2,N
1505169955.5,286047003.4,N
1505169975.4,286047001.7,N
1505169995.2,286047002.3,N
1505170015.0,286047003.2,N
1505170015.9,286047003.2,N
1505170035.8,286047001.8,N
1505170055.6,286047003.9,N
1505170075.4,286047003.2,N
1505170095.3,286047000.0,N
1505170115.1,286047001.4,N
1505170116.0,286047001.4,N
1505170135.8,286047001.7,N
1505170155.7,286047002.7,N
1505170175.5,286046998.1,N
1505170195.3,286047001.1,N
1505170215.1,286047000.8,N
1505170235.9,286047001.1,N
1505170255.7,286047000.5,N
1505170275.5,286047000.8,N
1505170295.4,286047001.2,N
1505170315.2,286046999.3,N
1505170335.0,286046999.4,N
1505170335.9,286046999.4,N
1505170355.8,286047000.8,N
1505170375.6,286046998.7,N
1505170395.4,286047001.2,N
1505170415.3,286046999.0,N
1505170435.1,286046996.9,N
1505170436.0,286046996.9,N
1505170455.8,286046996.6,N
1505170475.7,286047000.9,N
1505170495.5,286046998.3,N
1505170515.3,286046997.1,N
1505170535.2,286046996.9,N
1505170555.9,286046997.9,N
1505170575.7,286046993.4,P
1505170595.6,286046995.2,N
1505170615.4,286046995.2,N
1505170635.2,286046997.1,N
1505170655.0,286046999.6,N
1505170656.0,286046999.6,N
1505170675.8,286046997.4,N
1505170695.6,286046997.9,N
1505170715.4,286046994.9,N
1505170735.3,286046996.3,N
1505170755.1,286046996.1,N
1505170775.8,286046993.8,P
1505170795.7,286046996.9,N
